Regional Weather Roundup
Issued by NWS

Home | Current Version | Previous Version | Graphics & Text | Print | Product List | Glossary Off
Versions: 1 2 3 4 5 6 7 8 9 10 11 12 13 14 15 16 17 18 19 20 21 22 23 24 25 26 27

000
ASUS45 KBOU 192007
RWRCO

WEATHER ROUNDUP FOR COLORADO
NATIONAL WEATHER SERVICE DENVER/BOULDER CO
100 PM MST THU JAN 19 2017

NOTE: "FAIR" INDICATES FEW OR NO CLOUDS BELOW 12000 FEET WITH NO
SIGNIFICANT WEATHER AND/OR OBSTRUCTIONS TO VISIBILITY.

COZ001>005-013-030-031-192100-
...NORTHWEST COLORADO...

CITY           SKY/WX    TMP DP  RH WIND       PRES   REMARKS
CRAIG          FAIR      24  15  68 SW3       29.76F
HAYDEN         PTSUNNY   25  12  58 SE6       29.74F WCI  18
MEEKER         CLOUDY    38  22  52 SW12      29.74F
MOUNT WERNER   NOT AVBL
STEAMBOAT SPGS CLOUDY    19  13  76 CALM      29.75F
WALDEN           N/A    N/A N/A N/A N3        29.72F
$$

COZ006>008-011-192100-
...WEST CENTRAL VALLEYS...

CITY           SKY/WX    TMP DP  RH WIND       PRES   REMARKS
GRAND JUNCTION CLOUDY    37  27  67 NW12      29.77F
MONTROSE       CLOUDY    40  23  50 NW6       29.78F
EAGLE          SUNNY     28  18  64 W5        29.81F WCI  23
RIFLE          CLOUDY    35  23  61 CALM      29.76F
DELTA          CLOUDY    42  26  53 CALM      29.77F
NUCLA          CLOUDY    39  27  60 W3        29.83F
$$

COZ017>023-064>068-192100-
...SOUTHWEST COLORADO...

CITY           SKY/WX    TMP DP  RH WIND       PRES   REMARKS
DURANGO        CLOUDY    32  25  75 VRB5      29.82F WCI  27
CORTEZ         CLOUDY    38  27  64 SW7       29.82F
PAGOSA SPRINGS FAIR      35  20  54 S5        29.82F WCI  31
TELLURIDE      NOT AVBL
WOLF CREEK PAS   N/A     18  18 100 S9        29.83F WCI   6
$$

COZ009-010-012-014-032>034-037-058>063-192100-
...CENTRAL COLORADO...

CITY           SKY/WX    TMP DP  RH WIND       PRES   REMARKS
ASPEN          FAIR      35  15  44 CALM      29.73F
BUENA VISTA    FAIR      32  17  53 NW3       29.68F
COPPER MTN     FAIR      34   5  29 S6        29.77F WCI  29
BERTHOUD PASS  NOT AVBL
COTTONWOOD PAS FAIR      39  14  35 N8        29.69F
GUNNISON       FLURRIES  10   4  76 SE3       29.85F
KREMMLING      FAIR      21  12  68 CALM      29.81F
LEADVILLE      FAIR      41   4  21 N9        29.67F
MONARCH PASS   FAIR      19  14  79 SW7G26    29.84F HAZE    WCI  10
SALIDA         FAIR      41  18  39 SW17G24   29.73F
SUNLIGHT       FAIR      27  19  74 SW7G18    29.78F WCI  19
WILKERSON PASS FAIR      34   1  25 W7        29.74F WCI  28
$$

COZ069>075-192100-
...SAN LUIS VALLEY/SANGRE DE CRISTO MOUNTAINS...

CITY           SKY/WX    TMP DP  RH WIND       PRES   REMARKS
ALAMOSA        CLOUDY    20  19  96 CALM      29.81F
LA VETA PASS   FOG       21  18  86 NE33G40   29.70F VSB 3/4 WCI   2
SAGUACHE       FAIR      25  19  80 CALM      29.80F
$$

COZ035-036-038>040-192100-
...NORTHERN COLORADO FRONT RANGE...

CITY           SKY/WX    TMP DP  RH WIND       PRES   REMARKS
DENVER INTL AP FAIR      53  16  23 SE12      29.52F
DMNS CITY PARK   N/A     54  18  23 N17       29.52F
AURORA         MOSUNNY   53  17  24 E8        29.54F
FRONT RANGE AP MOSUNNY   54  16  22 SE9       29.54F
ERIE MUNI ARPT FAIR      48  18  29 CALM      29.54F
BOULDER MUN AP FAIR      48  25  40 CALM      29.53F
CENTENNIAL     FAIR      51  16  24 E8        29.53F
BROOMFIELD     MOSUNNY   50  21  32 CALM      29.55F
FORT COLLINS   FAIR      52  19  28 S3        29.54F
LONGMONT       FAIR      54  24  31 CALM      29.54F
$$

COZ041-046-047-076>085-087-088-192100-
...PIKES PEAK/PALMER DIVIDE AND SOUTHERN FOOTHILLS...

CITY           SKY/WX    TMP DP  RH WIND       PRES   REMARKS
COLO. SPRINGS  FAIR      52  12  20 S7        29.57F
A. F. ACADEMY  FAIR      52  10  18 S8        29.56F
SCHRIEVER AFB  NOT AVBL
ELLICOTT       FAIR     N/A N/A N/A SW6       29.56F
FALCON         FAIR      52   8  17 S7        29.59F
FORT CARSON    SUNNY     52  14  22 SW7       29.50F
LIMON          FAIR      53  15  22 NW8       29.54F
MONUMENT HILL  FAIR      48  16  27 E5        29.59F
TRINIDAD       FAIR      43  21  41 E8        29.58F
$$

COZ042>045-048>051-090-091-192100-
...NORTHEAST COLORADO...

CITY           SKY/WX    TMP DP  RH WIND       PRES   REMARKS
GREELEY ARPT   FAIR      45  28  51 NE3       29.55F
AKRON          FAIR      46  23  40 CALM      29.53F
BURLINGTON     FAIR      48  29  47 NW10      29.54F
WRAY           NOT AVBL
STERLING       FAIR      45  30  57 S3        29.53F
HOLYOKE        FAIR      48  30  49 CALM      29.54F
FORT MORGAN    FAIR      47  24  40 W5        29.55F
$$

COZ086-089-092>099-192100-
...SOUTHEAST COLORADO...

CITY           SKY/WX    TMP DP  RH WIND       PRES   REMARKS
PUEBLO         FAIR      53  27  36 E5        29.54F
LA JUNTA       FAIR      44  28  53 W9        29.55F
LAMAR          NOT AVBL
SPRINGFIELD      N/A     51  20  29 NW14      29.53F
$$




USA.gov is the U.S. government's official web portal to all federal, state and local government web resources and services.